.
WxDataArchive / Data Records for 2014-08-29
2014-08-28 August 2014 2014-08-30

Data Records for Friday, 29 August 2014

Time	Temp	Chill	HIndex	Humid	Dewpt	 Wind 	HiWind	WindDir	Rain 	Barom
-----	----	-----	------	-----	-----	------	------	-------	-----	-----
00:00	65.8	65.8	65.8	79	59.1	1	2	68	0.00	30.066 
00:05	65.6	65.6	65.6	79	58.9	0	3	68	0.00	30.066 
00:10	65.5	65.5	65.5	80	59.2	1	4	68	0.00	30.066 
00:15	65.3	65.3	65.3	80	59.0	0	4	68	0.00	30.065 
00:20	65.2	65.2	65.2	80	58.9	1	3	68	0.00	30.065 
00:25	65.0	65.0	65.0	81	59.0	0	2	68	0.00	30.065 
00:30	64.8	64.8	64.8	81	58.8	0	1	68	0.00	30.065 
00:35	64.7	64.7	64.7	81	58.7	0	1	68	0.00	30.065 
00:40	64.5	64.5	64.5	81	58.5	0	2	68	0.00	30.065 
00:45	64.5	64.5	64.5	81	58.5	0	2	68	0.00	30.072 
00:50	64.3	64.3	64.3	82	58.7	0	2	68	0.00	30.072 
00:55	64.2	64.2	64.2	82	58.6	0	2	68	0.00	30.072 
01:00	64.2	64.2	64.2	82	58.6	1	3	68	0.00	30.069 
01:05	64.2	64.2	64.2	82	58.6	0	1	68	0.00	30.069 
01:10	64.0	64.0	64.0	83	58.7	0	1	68	0.00	30.069 
01:15	63.9	63.9	63.9	83	58.6	0	1	68	0.00	30.065 
01:20	63.7	63.7	63.7	83	58.4	0	3	68	0.00	30.065 
01:25	63.5	63.5	63.5	83	58.2	0	1	68	0.00	30.065 
01:30	63.4	63.4	63.4	84	58.5	0	2	68	0.00	30.064 
01:35	63.4	63.4	63.4	84	58.5	0	1	68	0.00	30.064 
01:40	63.2	63.2	63.2	84	58.3	0	1	68	0.00	30.064 
01:45	63.1	63.1	63.1	84	58.2	0	2	68	0.00	30.062 
01:50	63.1	63.1	63.1	84	58.2	0	2	68	0.00	30.062 
01:55	62.9	62.9	62.9	84	58.0	0	3	68	0.00	30.062 
02:00	62.7	62.7	62.7	85	58.1	0	2	68	0.00	30.055 
02:05	62.6	62.6	62.6	85	58.0	0	2	68	0.00	30.055 
02:10	62.6	62.6	62.6	85	58.0	0	1	68	0.00	30.055 
02:15	62.4	62.4	62.4	85	57.8	0	2	68	0.00	30.051 
02:20	62.4	62.4	62.4	85	57.8	0	1	68	0.00	30.051 
02:25	62.4	62.4	62.4	85	57.8	0	1	68	0.00	30.051 
02:30	62.4	62.4	62.4	85	57.8	0	2	68	0.00	30.048 
02:35	62.4	62.4	62.4	85	57.8	0	2	68	0.00	30.048 
02:40	62.4	62.4	62.4	85	57.8	0	2	68	0.00	30.048 
02:45	62.4	62.4	62.4	85	57.8	1	4	68	0.00	30.047 
02:50	62.4	62.4	62.4	85	57.8	0	2	90	0.00	30.047 
02:55	62.4	62.4	62.4	85	57.8	0	3	90	0.00	30.047 
03:00	62.4	62.4	62.4	85	57.8	0	2	90	0.00	30.044 
03:05	62.4	62.4	62.4	85	57.8	0	1	90	0.00	30.044 
03:10	62.4	62.4	62.4	85	57.8	0	2	90	0.00	30.044 
03:15	62.4	62.4	62.4	85	57.8	0	2	90	0.00	30.037 
03:20	62.4	62.4	62.4	85	57.8	0	2	90	0.00	30.037 
03:25	62.4	62.4	62.4	85	57.8	0	2	90	0.00	30.037 
03:30	62.4	62.4	62.4	84	57.5	0	3	90	0.00	30.037 
03:35	62.4	62.4	62.4	84	57.5	0	1	90	0.00	30.037 
03:40	62.4	62.4	62.4	84	57.5	0	1	90	0.00	30.037 
03:45	62.4	62.4	62.4	84	57.5	0	1	90	0.00	30.037 
03:50	62.4	62.4	62.4	85	57.8	0	1	90	0.00	30.037 
03:55	62.4	62.4	62.4	85	57.8	0	2	90	0.00	30.037 
04:00	62.3	62.3	62.3	85	57.7	0	2	90	0.00	30.033 
04:05	62.3	62.3	62.3	85	57.7	0	1	90	0.00	30.033 
04:10	62.3	62.3	62.3	85	57.7	0	2	90	0.00	30.033 
04:15	62.1	62.1	62.1	85	57.5	0	2	90	0.00	30.034 
04:20	62.1	62.1	62.1	85	57.5	0	2	90	0.00	30.034 
04:25	62.0	62.0	62.0	85	57.4	0	3	90	0.00	30.034 
04:30	62.0	62.0	62.0	85	57.4	0	2	90	0.00	30.035 
04:35	61.8	61.8	61.8	86	57.6	0	2	90	0.00	30.035 
04:40	61.6	61.6	61.6	86	57.4	0	1	90	0.00	30.035 
04:45	61.6	61.6	61.6	86	57.4	0	1	90	0.00	30.034 
04:50	61.6	61.6	61.6	86	57.4	0	1	90	0.00	30.034 
04:55	61.6	61.6	61.6	86	57.4	0	2	90	0.00	30.034 
05:00	61.6	61.6	61.6	86	57.4	0	1	90	0.00	30.038 
05:05	61.5	61.5	61.5	86	57.3	0	2	90	0.00	30.038 
05:10	61.5	61.5	61.5	86	57.3	0	2	90	0.00	30.038 
05:15	61.3	61.3	61.3	87	57.4	0	3	90	0.00	30.034 
05:20	61.3	61.3	61.3	87	57.4	0	1	90	0.00	30.034 
05:25	61.3	61.3	61.3	87	57.4	0	3	90	0.00	30.034 
05:30	61.2	61.2	61.2	87	57.3	0	1	90	0.00	30.035 
05:35	61.2	61.2	61.2	87	57.3	0	3	90	0.00	30.035 
05:40	61.0	61.0	61.0	87	57.1	0	3	90	0.00	30.035 
05:45	61.0	61.0	61.0	87	57.1	1	4	90	0.00	30.035 
05:50	61.0	61.0	61.0	87	57.1	0	3	90	0.00	30.035 
05:55	61.0	61.0	61.0	87	57.1	0	1	90	0.00	30.035 
06:00	61.0	61.0	61.0	87	57.1	0	1	90	0.00	30.035 
06:05	60.9	60.9	60.9	87	57.0	0	1	90	0.00	30.035 
06:10	60.7	60.7	60.7	88	57.1	0	1	90	0.00	30.035 
06:15	60.7	60.7	60.7	88	57.1	0	1	90	0.00	30.036 
06:20	60.5	60.5	60.5	88	56.9	0	1	90	0.00	30.036 
06:25	60.5	60.5	60.5	88	56.9	0	1	90	0.00	30.036 
06:30	60.5	60.5	60.5	88	56.9	0	1	90	0.00	30.046 
06:35	60.5	60.5	60.5	88	56.9	0	1	90	0.00	30.046 
06:40	60.5	60.5	60.5	88	56.9	0	1	90	0.00	30.046 
06:45	60.5	60.5	60.5	88	56.9	0	1	90	0.00	30.051 
06:50	60.5	60.5	60.5	88	56.9	0	1	90	0.00	30.051 
06:55	60.5	60.5	60.5	88	56.9	0	2	90	0.00	30.051 
07:00	60.5	60.5	60.5	88	56.9	0	2	90	0.00	30.050 
07:05	60.4	60.4	60.4	88	56.8	0	2	90	0.00	30.050 
07:10	60.4	60.4	60.4	88	56.8	0	2	90	0.00	30.050 
07:15	60.4	60.4	60.4	88	56.8	0	2	90	0.00	30.054 
07:20	60.4	60.4	60.4	88	56.8	0	1	90	0.00	30.054 
07:25	60.4	60.4	60.4	88	56.8	0	3	90	0.00	30.054 
07:30	60.5	60.5	60.5	88	56.9	0	2	112	0.00	30.053 
07:35	60.5	60.5	60.5	88	56.9	1	2	112	0.00	30.053 
07:40	60.7	60.7	60.7	88	57.1	1	3	112	0.00	30.053 
07:45	61.0	61.0	61.0	88	57.4	0	3	112	0.00	30.055 
07:50	61.3	61.3	61.3	87	57.4	0	3	90	0.00	30.055 
07:55	61.5	61.5	61.5	86	57.3	1	3	90	0.00	30.055 
08:00	61.6	61.6	61.6	86	57.4	1	4	90	0.00	30.062 
08:05	61.6	61.6	61.6	86	57.4	1	4	90	0.00	30.062 
08:10	61.8	61.8	61.8	86	57.6	0	4	90	0.00	30.062 
08:15	61.8	61.8	61.8	86	57.6	0	2	90	0.00	30.069 
08:20	62.0	62.0	62.0	85	57.4	0	3	90	0.00	30.069 
08:25	62.1	62.1	62.1	85	57.5	1	3	90	0.00	30.069 
08:30	62.3	62.3	62.3	85	57.7	1	3	90	0.00	30.069 
08:35	62.4	62.4	62.4	84	57.5	1	5	68	0.00	30.069 
08:40	62.6	62.6	62.6	84	57.7	1	4	68	0.00	30.069 
08:45	62.9	62.9	62.9	84	58.0	1	4	68	0.00	30.069 
08:50	63.1	63.1	63.1	84	58.2	1	3	45	0.00	30.069 
08:55	63.2	63.2	63.2	84	58.3	1	4	68	0.00	30.069 
09:00	63.7	63.7	63.7	83	58.4	1	3	68	0.00	30.059 
09:05	64.3	64.3	64.3	82	58.7	1	6	68	0.00	30.059 
09:10	64.7	64.7	64.7	81	58.7	1	4	45	0.00	30.059 
09:15	64.8	64.8	64.8	80	58.5	1	4	90	0.00	30.059 
09:20	64.8	64.8	64.8	81	58.8	1	5	90	0.00	30.059 
09:25	65.2	65.2	65.2	80	58.9	1	5	90	0.00	30.059 
09:30	65.5	65.5	65.5	80	59.2	0	6	90	0.00	30.058 
09:35	65.8	65.8	65.8	78	58.7	0	3	90	0.00	30.058 
09:40	66.0	66.0	66.0	78	58.9	1	4	90	0.00	30.058 
09:45	66.1	66.1	66.1	79	59.4	1	3	90	0.00	30.056 
09:50	66.4	66.4	66.4	78	59.3	1	4	90	0.00	30.056 
09:55	66.9	66.9	66.9	77	59.4	0	3	90	0.00	30.056 
10:00	67.3	67.3	67.3	76	59.5	0	2	112	0.00	30.055 
10:05	67.9	67.9	67.9	75	59.7	1	4	202	0.00	30.055 
10:10	68.4	68.4	68.4	74	59.8	1	3	135	0.00	30.055 
10:15	68.9	68.9	68.9	73	59.9	1	4	90	0.00	30.059 
10:20	69.6	69.6	69.6	72	60.2	1	3	90	0.00	30.059 
10:25	70.4	70.4	70.4	71	60.5	1	5	112	0.00	30.059 
10:30	70.9	70.9	70.9	70	60.6	1	3	90	0.00	30.056 
10:35	71.5	71.5	71.5	69	60.8	1	4	68	0.00	30.056 
10:40	72.1	72.1	72.1	68	60.9	1	2	68	0.00	30.056 
10:45	72.8	72.8	72.8	67	61.2	0	3	68	0.00	30.051 
10:50	73.7	73.7	73.7	67	62.0	0	4	68	0.00	30.051 
10:55	74.0	74.0	74.0	64	61.0	1	6	90	0.00	30.051 
11:00	74.4	74.4	74.4	65	61.8	1	6	90	0.00	30.054 
11:05	74.7	74.7	74.7	65	62.1	0	3	90	0.00	30.054 
11:10	75.3	75.3	77.4	64	62.3	0	3	90	0.00	30.054 
11:15	75.8	75.8	77.8	62	61.8	0	3	90	0.00	30.055 
11:20	76.5	76.5	78.4	61	62.0	1	4	90	0.00	30.055 
11:25	76.8	76.8	78.6	60	61.8	1	3	22	0.00	30.055 
11:30	76.7	76.7	78.5	60	61.7	2	5	68	0.00	30.055 
11:35	76.7	76.7	78.5	61	62.2	1	4	90	0.00	30.055 
11:40	76.7	76.7	78.5	60	61.7	1	5	90	0.00	30.055 
11:45	76.7	76.7	78.5	60	61.7	1	3	112	0.00	30.052 
11:50	76.8	76.8	78.6	60	61.8	0	2	90	0.00	30.052 
11:55	77.0	77.0	78.8	60	62.0	1	4	90	0.00	30.052 
12:00	77.4	77.4	79.1	59	61.9	1	4	112	0.00	30.052 
12:05	77.7	77.7	79.4	61	63.2	1	3	112	0.00	30.052 
12:10	78.3	78.3	80.0	60	63.2	1	2	135	0.00	30.052 
12:15	78.6	78.6	80.2	59	63.1	1	4	112	0.00	30.046 
12:20	78.6	78.6	80.2	59	63.1	1	2	90	0.00	30.046 
12:25	78.8	78.8	80.5	60	63.7	1	3	90	0.00	30.046 
12:30	78.6	78.6	80.3	61	64.0	0	2	90	0.00	30.044 
12:35	78.3	78.3	79.9	59	62.8	1	3	90	0.00	30.044 
12:40	77.9	77.9	79.6	61	63.3	0	2	90	0.00	30.044 
12:45	77.7	77.7	79.4	61	63.2	0	3	90	0.00	30.039 
12:50	77.7	77.7	79.4	62	63.6	1	2	135	0.00	30.039 
12:55	78.1	78.1	79.9	62	64.0	0	2	135	0.00	30.039 
13:00	78.5	78.5	80.2	61	63.9	1	3	112	0.00	30.031 
13:05	78.8	78.8	80.5	61	64.2	0	1	112	0.00	30.031 
13:10	78.8	78.8	80.5	60	63.7	1	3	112	0.00	30.031 
13:15	78.8	78.8	80.5	61	64.2	0	2	112	0.00	30.031 
13:20	78.8	78.8	80.5	61	64.2	1	4	112	0.00	30.031 
13:25	79.0	79.0	80.8	61	64.4	0	1	112	0.00	30.031 
13:30	78.8	78.8	80.5	61	64.2	0	2	135	0.00	30.028 
13:35	78.6	78.6	80.4	62	64.5	1	4	90	0.00	30.028 
13:40	78.6	78.6	80.4	62	64.5	1	4	135	0.00	30.028 
13:45	78.6	78.6	80.4	63	64.9	1	3	112	0.00	30.022 
13:50	78.8	78.8	80.6	62	64.7	1	3	112	0.00	30.022 
13:55	79.2	79.2	81.1	62	65.0	0	2	112	0.00	30.022 
14:00	79.4	79.4	81.3	62	65.2	0	1	158	0.00	30.016 
14:05	79.6	79.6	81.5	62	65.4	0	2	180	0.00	30.016 
14:10	79.9	79.9	81.7	60	64.7	0	3	135	0.00	30.016 
14:15	80.1	80.1	82.0	61	65.4	0	2	135	0.00	30.015 
14:20	79.9	79.9	81.9	62	65.7	2	4	90	0.00	30.015 
14:25	79.8	79.8	81.8	62	65.6	1	3	90	0.00	30.015 
14:30	79.9	79.9	81.9	62	65.7	0	3	90	0.00	30.013 
14:35	80.3	80.3	82.4	62	66.1	0	1	90	0.00	30.013 
14:40	80.7	80.7	82.7	60	65.5	1	3	90	0.00	30.013 
14:45	81.4	81.4	83.6	60	66.2	1	5	90	0.00	30.004 
14:50	81.8	81.8	84.1	60	66.5	1	5	90	0.00	30.004 
14:55	82.2	82.2	84.5	59	66.4	1	4	90	0.00	30.004 
15:00	81.8	81.8	84.1	60	66.5	1	3	90	0.00	29.997 
15:05	81.8	81.8	84.3	61	67.0	1	4	90	0.00	29.997 
15:10	82.0	82.0	84.4	60	66.7	0	3	90	0.00	29.997 
15:15	82.2	82.2	84.5	59	66.4	0	2	292	0.00	29.990 
15:20	82.4	82.4	85.0	60	67.1	0	2	315	0.00	29.990 
15:25	82.6	82.6	85.3	60	67.3	1	3	315	0.00	29.990 
15:30	82.8	82.8	85.4	59	67.0	1	3	112	0.00	29.984 
15:35	83.0	83.0	85.7	59	67.2	1	3	112	0.00	29.984 
15:40	83.4	83.4	86.3	59	67.5	1	4	112	0.00	29.984 
15:45	83.6	83.6	86.4	58	67.2	1	3	112	0.00	29.978 
15:50	83.6	83.6	86.1	57	66.7	1	4	112	0.00	29.978 
15:55	83.6	83.6	86.4	58	67.2	1	6	112	0.00	29.978 
16:00	83.4	83.4	86.1	58	67.0	1	3	90	0.00	29.972 
16:05	83.2	83.2	86.0	59	67.4	1	4	90	0.00	29.972 
16:10	83.0	83.0	85.7	59	67.2	1	3	112	0.00	29.972 
16:15	82.4	82.4	85.0	60	67.1	1	3	112	0.00	29.970 
16:20	82.2	82.2	84.5	59	66.4	1	3	112	0.00	29.970 
16:25	82.4	82.4	85.0	60	67.1	1	3	112	0.00	29.970 
16:30	82.6	82.6	85.3	60	67.3	1	3	112	0.00	29.966 
16:35	82.8	82.8	85.4	59	67.0	1	3	112	0.00	29.966 
16:40	82.4	82.4	85.0	60	67.1	0	3	112	0.00	29.966 
16:45	82.2	82.2	84.7	60	66.9	0	2	112	0.00	29.968 
16:50	82.0	82.0	84.4	60	66.7	0	2	180	0.00	29.968 
16:55	81.8	81.8	84.5	62	67.5	1	3	112	0.00	29.968 
17:00	81.8	81.8	84.3	61	67.0	1	5	112	0.00	29.967 
17:05	81.8	81.8	84.5	62	67.5	1	3	112	0.00	29.967 
17:10	81.8	81.8	84.5	62	67.5	1	3	112	0.00	29.967 
17:15	82.0	82.0	84.6	61	67.2	0	2	0	0.00	29.968 
17:20	82.4	82.4	85.2	61	67.6	1	3	135	0.00	29.968 
17:25	82.6	82.6	85.5	61	67.8	1	3	135	0.00	29.968 
17:30	82.8	82.8	85.6	60	67.5	1	3	90	0.00	29.964 
17:35	82.6	82.6	85.3	60	67.3	1	4	90	0.00	29.964 
17:40	82.4	82.4	85.0	60	67.1	1	3	90	0.00	29.964 
17:45	82.2	82.2	84.9	61	67.4	1	4	90	0.00	29.963 
17:50	82.0	82.0	84.8	62	67.7	1	3	90	0.00	29.963 
17:55	82.0	82.0	84.8	62	67.7	1	3	112	0.00	29.963 
18:00	81.8	81.8	84.3	61	67.0	1	3	112	0.00	29.958 
18:05	81.6	81.6	84.2	62	67.3	0	2	112	0.00	29.958 
18:10	81.4	81.4	84.1	63	67.6	0	1	112	0.00	29.958 
18:15	81.4	81.4	84.1	63	67.6	0	3	112	0.00	29.955 
18:20	81.2	81.2	83.8	63	67.4	1	4	112	0.00	29.955 
18:25	81.4	81.4	84.1	63	67.6	0	2	112	0.00	29.955 
18:30	81.4	81.4	83.9	62	67.1	1	4	112	0.00	29.961 
18:35	81.2	81.2	83.5	61	66.4	1	3	112	0.00	29.961 
18:40	81.1	81.1	83.5	62	66.8	0	2	112	0.00	29.961 
18:45	80.9	80.9	83.4	63	67.1	0	2	112	0.00	29.958 
18:50	80.9	80.9	83.4	63	67.1	0	3	112	0.00	29.958 
18:55	80.7	80.7	83.1	63	66.9	1	3	135	0.00	29.958 
19:00	80.5	80.5	82.9	64	67.2	1	4	90	0.00	29.951 
19:05	80.3	80.3	82.8	65	67.4	0	2	90	0.00	29.951 
19:10	80.1	80.1	82.5	65	67.2	0	1	90	0.00	29.951 
19:15	79.9	79.9	82.2	65	67.1	0	1	90	0.00	29.951 
19:20	79.8	79.8	82.1	65	67.0	0	2	90	0.00	29.951 
19:25	79.8	79.8	82.1	65	67.0	0	1	90	0.00	29.951 
19:30	79.6	79.6	81.8	65	66.8	0	3	90	0.00	29.950 
19:35	79.4	79.4	81.6	66	67.0	0	2	90	0.00	29.950 
19:40	79.0	79.0	81.1	66	66.6	0	1	90	0.00	29.950 
19:45	78.8	78.8	80.9	67	66.9	0	1	90	0.00	29.949 
19:50	78.6	78.6	80.7	67	66.7	0	1	90	0.00	29.949 
19:55	78.5	78.5	80.6	68	67.0	0	1	90	0.00	29.949 
20:00	78.1	78.1	80.1	68	66.7	0	3	90	0.00	29.945 
20:05	77.9	77.9	79.9	69	66.9	0	1	90	0.00	29.945 
20:10	77.7	77.7	79.6	69	66.7	0	2	90	0.00	29.945 
20:15	77.6	77.6	79.5	70	67.0	0	1	90	0.00	29.943 
20:20	77.4	77.4	79.3	70	66.8	0	3	90	0.00	29.943 
20:25	77.2	77.2	79.0	70	66.6	0	1	90	0.00	29.943 
20:30	76.8	76.8	78.5	71	66.7	0	1	90	0.00	29.942 
20:35	76.7	76.7	78.4	71	66.6	0	1	90	0.00	29.942 
20:40	76.7	76.7	78.4	72	67.0	0	1	90	0.00	29.942 
20:45	76.5	76.5	78.1	73	67.2	0	2	112	0.00	29.940 
20:50	76.3	76.3	77.8	73	67.0	0	0	---	0.00	29.940 
20:55	76.1	76.1	77.6	73	66.8	0	1	112	0.00	29.940 
21:00	76.0	76.0	77.4	74	67.1	0	2	112	0.00	29.940 
21:05	75.8	75.8	77.2	74	66.9	0	1	112	0.00	29.940 
21:10	75.8	75.8	77.1	75	67.3	0	1	112	0.00	29.940 
21:15	75.6	75.6	76.9	75	67.1	0	1	112	0.00	29.949 
21:20	75.4	75.4	76.6	75	66.9	0	0	---	0.00	29.949 
21:25	75.3	75.3	76.4	76	67.2	0	0	---	0.00	29.949 
21:30	75.1	75.1	76.2	76	67.0	0	1	112	0.00	29.946 
21:35	74.9	74.9	74.9	76	66.8	0	1	112	0.00	29.946 
21:40	74.9	74.9	74.9	76	66.8	0	0	---	0.00	29.946 
21:45	74.7	74.7	74.7	76	66.6	0	1	112	0.00	29.948 
21:50	74.7	74.7	74.7	76	66.6	0	0	---	0.00	29.948 
21:55	74.7	74.7	74.7	76	66.6	0	1	112	0.00	29.948 
22:00	74.7	74.7	74.7	76	66.6	0	2	112	0.00	29.953 
22:05	74.7	74.7	74.7	76	66.6	0	0	---	0.00	29.953 
22:10	74.6	74.6	74.6	76	66.5	0	1	112	0.00	29.953 
22:15	74.6	74.6	74.6	77	66.9	0	0	---	0.00	29.952 
22:20	74.6	74.6	74.6	77	66.9	0	1	112	0.00	29.952 
22:25	74.4	74.4	74.4	77	66.7	0	0	---	0.00	29.952 
22:30	74.4	74.4	74.4	77	66.7	0	1	112	0.00	29.950 
22:35	74.2	74.2	74.2	77	66.5	0	0	---	0.00	29.950 
22:40	74.0	74.0	74.0	77	66.3	0	0	---	0.00	29.950 
22:45	74.0	74.0	74.0	78	66.7	0	1	112	0.00	29.957 
22:50	73.9	73.9	73.9	78	66.6	0	1	112	0.00	29.957 
22:55	73.7	73.7	73.7	78	66.4	0	0	---	0.00	29.957 
23:00	73.7	73.7	73.7	78	66.4	0	1	112	0.00	29.959 
23:05	73.5	73.5	73.5	79	66.6	0	1	112	0.00	29.959 
23:10	73.3	73.3	73.3	79	66.4	0	0	---	0.00	29.959 
23:15	73.3	73.3	73.3	79	66.4	0	0	---	0.00	29.959 
23:20	73.2	73.2	73.2	79	66.3	0	1	112	0.00	29.959 
23:25	73.0	73.0	73.0	80	66.5	0	1	112	0.00	29.959 
23:30	73.0	73.0	73.0	80	66.5	0	1	112	0.00	29.959 
23:35	72.8	72.8	72.8	80	66.3	0	1	112	0.00	29.959 
23:40	72.8	72.8	72.8	80	66.3	0	0	---	0.00	29.959 
23:45	72.7	72.7	72.7	81	66.5	0	0	---	0.00	29.956 
23:50	72.5	72.5	72.5	81	66.3	0	0	---	0.00	29.956 
23:55	72.5	72.5	72.5	81	66.3	0	1	112	0.00	29.956 

CoCoRaHS
IN-AL-39
A2 Web Hosting
Creative Commons License
GoDaddy
search engine by freefind advanced

loaded 2018-11-17 23:10:59 • last modified 2010-11-18 10:43:29
Privacy PolicyDisclaimer
• wx.awcolley.com is powered by PmWiki v.2002016 •
• all content (unless otherwise noted) © 2018 A W Colley